Fairbanks, AK

1:07 AM AKDT on September 27, 2016 (GMT -0800)
Fairbanks International

Weather History for PAFA - May, 2012

Change the Weather History Date:

Tuesday, May 15, 2012

  Actual Average Record
Temperature  
Mean Temperature 42 °F 49 °F  
Max Temperature 50 °F 61 °F 81 °F (1915)
Min Temperature 34 °F 38 °F 23 °F (1937)
Degree Days  
Heating Degree Days 23 16  
Month to date heating degree days 344 284  
Since 1 July heating degree days 13595 13308  
Cooling Degree Days 0 0  
Month to date cooling degree days 0 0  
Year to date cooling degree days 0 0  
Moisture  
Dew Point 32 °F    
Average Humidity 68    
Maximum Humidity 96    
Minimum Humidity 43    
Precipitation  
Precipitation T in 0.02 in 0.45 in (2005)
Month to date precipitation 0.14 0.25  
Year to date precipitation 2.06 1.81  
Snow  
Snow 0.00 in 0.10 in 2.00 in (1918)
Month to date snowfall T 0.7  
Since 1 July snowfall 57.4 64.8  
Snow Depth 0.00 in    
Sea Level Pressure  
Sea Level Pressure 30.25 in    
Wind  
Wind Speed 5 mph (South)    
Max Wind Speed 12 mph    
Max Gust Speed 18 mph    
Visibility 10 miles    
Events Rain    
T = Trace of Precipitation, MM = Missing Value Source: NWS Daily Summary

Daily Weather History Graph

Daily Weather History Graph

Search for Another Location

Airport or City:

Trip Planner

Search our weather history database for the weather conditions in past years. The results will help you decide how hot, cold, wet, or windy it might be!

Date:

Astronomy

May. 15, 2012 Rise Set
Actual Time 4:26 AM AKDT 11:11 PM AKDT
Civil Twilight 2:16 AM AKDT 1:15 AM AKDT
Nautical Twilight Sun does not set Sun does not set
Astronomical Twilight Sun does not set Sun does not set
Moon 3:29 AM AKDT (5/15) 4:55 PM AKDT (5/15)
Length of Visible Light 22h 58m
Length of Day
18h 45m
Waning Crescent, 22% of the Moon is Illuminated
May 15
Waning Crescent
May 20
New
May 28
First Quarter
Jun 4
Full
Jun 11
Last Quarter

Hourly Weather History & Observations

Time (AKDT) Temp. Windchill Dew Point Humidity Pressure Visibility Wind Dir Wind Speed Gust Speed Precip Events Conditions
12:53 AM 39.0 °F 34.0 °F 35.1 °F 86% 30.14 in 10.0 mi WSW 6.9 mph - N/A   Mostly Cloudy
1:53 AM 37.9 °F - 35.1 °F 89% 30.16 in 10.0 mi Calm Calm - N/A   Mostly Cloudy
2:53 AM 36.0 °F 33.3 °F 34.0 °F 93% 30.18 in 10.0 mi SSW 3.5 mph - N/A   Mostly Cloudy
3:53 AM 35.1 °F 31.0 °F 33.1 °F 92% 30.19 in 10.0 mi SSE 4.6 mph - N/A   Mostly Cloudy
4:53 AM 35.1 °F 31.0 °F 33.1 °F 92% 30.20 in 10.0 mi SSW 4.6 mph - N/A   Mostly Cloudy
5:53 AM 34.0 °F - 33.1 °F 96% 30.22 in 10.0 mi Calm Calm - N/A   Mostly Cloudy
6:53 AM 36.0 °F 33.3 °F 34.0 °F 93% 30.24 in 10.0 mi SSW 3.5 mph - N/A   Mostly Cloudy
7:53 AM 37.9 °F 35.5 °F 35.1 °F 89% 30.25 in 10.0 mi SSE 3.5 mph - N/A   Mostly Cloudy
8:53 AM 39.9 °F 35.8 °F 33.1 °F 77% 30.26 in 10.0 mi SSW 5.8 mph - N/A   Mostly Cloudy
9:53 AM 42.1 °F 38.4 °F 33.1 °F 70% 30.26 in 10.0 mi Variable 5.8 mph - N/A   Mostly Cloudy
10:53 AM 45.0 °F 40.1 °F 30.9 °F 58% 30.25 in 10.0 mi SSW 9.2 mph - N/A   Mostly Cloudy
11:53 AM 45.0 °F 42.6 °F 32.0 °F 60% 30.26 in 10.0 mi SW 4.6 mph - N/A   Mostly Cloudy
12:53 PM 46.0 °F 43.9 °F 30.0 °F 54% 30.25 in 10.0 mi South 4.6 mph - N/A   Mostly Cloudy
1:53 PM 48.0 °F - 28.0 °F 46% 30.25 in 10.0 mi South 6.9 mph - N/A   Mostly Cloudy
2:53 PM 48.0 °F - 32.0 °F 54% 30.27 in 10.0 mi South 11.5 mph - N/A   Mostly Cloudy
3:53 PM 46.0 °F 41.9 °F 30.9 °F 56% 30.27 in 10.0 mi South 8.1 mph 18.4 mph N/A   Mostly Cloudy
4:53 PM 48.9 °F - 27.0 °F 43% 30.26 in 10.0 mi SSW 5.8 mph - N/A   Mostly Cloudy
5:53 PM 48.0 °F - 28.9 °F 48% 30.26 in 10.0 mi SSW 9.2 mph - N/A   Mostly Cloudy
6:53 PM 48.0 °F - 28.9 °F 48% 30.27 in 10.0 mi SSW 6.9 mph - N/A   Mostly Cloudy
7:53 PM 46.9 °F - 33.1 °F 59% 30.28 in 10.0 mi South 6.9 mph - 0.00 in Rain Light Rain
8:53 PM 46.0 °F 44.8 °F 34.0 °F 63% 30.29 in 10.0 mi SSW 3.5 mph - 0.00 in   Mostly Cloudy
9:53 PM 46.9 °F - 33.1 °F 59% 30.30 in 10.0 mi Calm Calm - N/A   Mostly Cloudy
10:53 PM 42.1 °F 39.2 °F 32.0 °F 67% 30.31 in 10.0 mi East 4.6 mph - N/A   Mostly Cloudy
11:53 PM 37.9 °F - 33.1 °F 83% 30.32 in 10.0 mi Calm Calm - N/A   Mostly Cloudy